Location: Prairie State College
(41.5244°N, 87.6382°W)
Time: 04:13:51
(UTC-05:00)

ARGOS Delta rocket - Visible Passes

Search period start: 06 July 2015 00:00
Search period end: 16 July 2015 00:00
Orbit: 635 x 840 km, 96.5° (Epoch: 05 July)

Date Brightness Start Highest point End Pass type
(mag) Time Alt. Az. Time Alt. Az. Time Alt. Az.
06 Jul 3.6 21:36:28 12° SSE 21:40:31 76° ENE 21:45:00 10° N visible
07 Jul 5.4 22:30:47 10° SSW 22:34:32 27° W 22:38:21 10° NW visible
08 Jul 3.7 21:45:29 12° S 21:49:30 83° W 21:54:03 10° NNW visible
09 Jul 4.5 21:00:51 10° SE 21:04:47 33° ENE 21:08:54 10° N visible
09 Jul 5.8 22:40:12 10° SW 22:43:38 21° W 22:47:03 10° NW visible
10 Jul 4.0 21:54:30 12° S 21:58:30 63° W 22:03:02 10° NNW visible
11 Jul 4.2 21:09:33 10° SE 21:13:43 43° ENE 21:18:05 10° N visible
11 Jul 6.1 22:49:48 10° SW 22:52:46 17° W 22:55:37 10° NW visible
12 Jul 4.5 22:03:31 12° S 22:07:32 48° W 22:11:59 10° NNW visible
13 Jul 3.9 21:18:19 10° SSE 21:22:40 57° ENE 21:27:13 10° N visible
13 Jul 6.3 22:59:42 10° WSW 23:01:55 13° W 23:03:57 10° WNW visible
14 Jul 5.0 22:12:32 11° SSW 22:16:34 37° W 22:20:52 10° NNW visible
15 Jul 3.7 21:27:13 10° SSE 21:31:37 75° ENE 21:36:20 10° N visible
